TimeMST,TemperatureF,Dew PointF,Humidity,Sea Level PressureIn,VisibilityMPH,Wind Direction,Wind SpeedMPH,Gust SpeedMPH,PrecipitationIn,Events,Conditions,WindDirDegrees,DateUTC
12:53 AM,15.1,10.9,84,30.31,10.0,NW,5.8,-,N/A,,Clear,320,2013-02-28 07:53:00
1:53 AM,16.0,10.9,81,30.30,10.0,NW,5.8,-,N/A,,Clear,320,2013-02-28 08:53:00
2:53 AM,16.0,10.9,81,30.29,10.0,NW,4.6,-,N/A,,Clear,320,2013-02-28 09:53:00
3:53 AM,15.1,10.0,80,30.28,10.0,NNW,5.8,-,N/A,,Clear,330,2013-02-28 10:53:00
4:53 AM,15.8,10.4,79,30.19,10.0,NW,4.6,-,N/A,,Clear,310,2013-02-28 11:53:00
5:53 AM,14.0,10.0,84,30.32,10.0,WNW,4.6,-,N/A,,Clear,300,2013-02-28 12:53:00
6:53 AM,17.6,10.4,73,30.20,10.0,NNW,5.8,-,N/A,,Clear,340,2013-02-28 13:53:00
7:53 AM,24.1,15.1,69,30.32,10.0,NW,8.1,-,N/A,,Clear,310,2013-02-28 14:53:00
8:53 AM,30.9,14.0,50,30.32,10.0,WNW,12.7,-,N/A,,Clear,300,2013-02-28 15:53:00
9:53 AM,37.0,15.1,41,30.30,10.0,WNW,15.0,-,N/A,,Partly Cloudy,290,2013-02-28 16:53:00
10:53 AM,39.9,12.0,32,30.29,10.0,NW,19.6,-,N/A,,Mostly Cloudy,310,2013-02-28 17:53:00
11:53 AM,43.0,12.0,28,30.27,10.0,NNW,17.3,24.2,N/A,,Clear,330,2013-02-28 18:53:00
12:53 PM,46.0,10.9,24,30.23,10.0,WNW,16.1,27.6,N/A,,Scattered Clouds,300,2013-02-28 19:53:00
1:53 PM,43.0,9.0,25,30.22,10.0,NNW,21.9,28.8,N/A,,Mostly Cloudy,330,2013-02-28 20:53:00
2:53 PM,44.6,10.4,25,30.14,10.0,NW,21.9,28.8,N/A,,Mostly Cloudy,320,2013-02-28 21:53:00
3:53 PM,45.0,10.0,24,30.22,10.0,NNW,17.3,24.2,N/A,,Mostly Cloudy,330,2013-02-28 22:53:00
4:53 PM,42.1,9.0,26,30.24,10.0,NNW,13.8,21.9,N/A,,Overcast,330,2013-02-28 23:53:00
5:53 PM,37.0,14.0,39,30.27,10.0,NNW,8.1,-,N/A,,Overcast,330,2013-03-01 00:53:00
6:53 PM,34.0,14.0,44,30.29,10.0,NW,9.2,-,N/A,,Overcast,320,2013-03-01 01:53:00
7:53 PM,34.0,12.9,42,30.27,10.0,WNW,6.9,-,N/A,,Overcast,290,2013-03-01 02:53:00
8:53 PM,32.0,15.1,50,30.27,10.0,NNW,6.9,-,N/A,,Overcast,330,2013-03-01 03:53:00
9:53 PM,32.0,17.1,54,30.25,10.0,WNW,8.1,-,N/A,,Mostly Cloudy,300,2013-03-01 04:53:00
10:53 PM,28.0,15.1,58,30.27,10.0,NW,4.6,-,N/A,,Partly Cloudy,310,2013-03-01 05:53:00
11:53 PM,28.9,21.0,72,30.29,10.0,NNW,10.4,-,N/A,,Mostly Cloudy,340,2013-03-01 06:53:00